Erzurum, Turkey

4:08 PM +03 on June 22, 2017 (GMT +0300)
Erzurum

Weather History for LTCE - June, 2013

Change the Weather History Date:

Friday, June 14, 2013

  Actual Average Record
Temperature  
Mean Temperature 62 °F -  
Max Temperature 82 °F 74 °F 85 °F (2012)
Min Temperature 42 °F 49 °F 33 °F (2000)
Degree Days  
Heating Degree Days 3    
Growing Degree Days 12 (Base 50)    
Moisture  
Dew Point 41 °F    
Average Humidity 50    
Maximum Humidity 87    
Minimum Humidity 7    
Precipitation  
Precipitation 0.00 in 0.05 in - ()
Sea Level Pressure  
Sea Level Pressure 29.98 in    
Wind  
Wind Speed 6 mph ()    
Max Wind Speed 20 mph    
Max Gust Speed -    
Visibility 7.3 miles    
Events      
Averages and records for this station are not official NWS values.
T = Trace of Precipitation, MM = Missing Value Source: Averaged Metar Reports

Daily Weather History Graph

Daily Weather History Graph

Search for Another Location

Airport or City:

Trip Planner

Search our weather history database for the weather conditions in past years. The results will help you decide how hot, cold, wet, or windy it might be!

Date:

Astronomy

Jun. 14, 2013 Rise Set
Actual Time 4:46 AM EEST 7:45 PM EEST
Civil Twilight 4:13 AM EEST 8:18 PM EEST
Nautical Twilight 3:31 AM EEST 8:59 PM EEST
Astronomical Twilight 2:43 AM EEST 9:48 PM EEST
Moon 9:59 AM EEST (6/14) 11:10 PM EEST (6/14)
Length of Visible Light 16h 04m
Length of Day
14h 59m
Waxing Crescent, 27% of the Moon is Illuminated
Jun 14
Waxing Crescent
Jun 16
First Quarter
Jun 23
Full
Jun 30
Last Quarter
Jul 8
New

Hourly Weather History & Observations

Time (EEST) Temp. Dew Point Humidity Pressure Visibility Wind Dir Wind Speed Gust Speed Precip Events Conditions
12:20 AM 50.0 °F 42.8 °F 76% 29.98 in - Calm Calm - N/A   Clear
12:50 AM 50.0 °F 42.8 °F 76% 29.98 in - North 3.5 mph - N/A   Clear
1:20 AM 48.2 °F 42.8 °F 82% 29.98 in - Variable 2.3 mph - N/A   Clear
1:50 AM 46.4 °F 42.8 °F 87% 29.98 in - SSE 2.3 mph - N/A   Clear
2:20 AM 48.2 °F 42.8 °F 82% 29.98 in - West 3.5 mph - N/A   Clear
2:50 AM 46.4 °F 41.0 °F 81% 29.98 in - Variable 2.3 mph - N/A   Clear
3:00 AM 46 °F 41 °F 78%  in 12 mi SW 2.3 mph - -  
3:20 AM 44.6 °F 41.0 °F 87% 29.98 in - Variable 2.3 mph - N/A   Clear
3:50 AM 44.6 °F 39.2 °F 81% 29.98 in - Calm Calm - N/A   Clear
4:20 AM 44.6 °F 39.2 °F 81% 29.98 in - Variable 1.2 mph - N/A   Clear
4:50 AM 42.8 °F 39.2 °F 87% 29.98 in - Variable 2.3 mph - N/A   Clear
5:20 AM 42.8 °F 39.2 °F 87% 29.98 in - Variable 1.2 mph - N/A   Clear
5:50 AM 46.4 °F 41.0 °F 81% 29.98 in - Variable 1.2 mph - N/A   Clear
6:20 AM 50.0 °F 44.6 °F 82% 29.98 in - WSW 2.3 mph - N/A   Clear
6:50 AM 55.4 °F 46.4 °F 72% 29.98 in - Calm Calm - N/A   Clear
7:20 AM 62.6 °F 50.0 °F 63% 29.98 in - East 12.7 mph - N/A   Clear
7:50 AM 64.4 °F 50.0 °F 59% 29.98 in - ENE 12.7 mph - N/A   Clear
8:20 AM 66.2 °F 50.0 °F 56% 29.98 in - East 17.3 mph - N/A   Clear
8:50 AM 66.2 °F 48.2 °F 52% 29.98 in - East 19.6 mph - N/A   Clear
9:00 AM 67 °F 47 °F 38%  in 12 mi East 19.6 mph - -  
9:20 AM 68.0 °F 48.2 °F 49% 29.98 in - East 18.4 mph - N/A   Clear
9:50 AM 69.8 °F 48.2 °F 46% 29.98 in - East 17.3 mph - N/A   Clear
10:20 AM 71.6 °F 50.0 °F 46% 29.98 in 6.2 mi East 16.1 mph - N/A   Partly Cloudy
10:50 AM 71.6 °F 46.4 °F 41% 29.98 in 6.2 mi East 18.4 mph - N/A   Partly Cloudy
11:20 AM 75.2 °F 48.2 °F 38% 29.98 in 6.2 mi East 12.7 mph - N/A   Partly Cloudy
11:50 AM 75.2 °F 44.6 °F 34% 29.98 in 6.2 mi East 16.1 mph - N/A   Partly Cloudy
12:20 PM 75.2 °F 46.4 °F 36% 29.98 in 6.2 mi NNE 13.8 mph - N/A   Partly Cloudy
12:50 PM 77.0 °F 42.8 °F 29% 29.95 in 6.2 mi Variable 6.9 mph - N/A   Partly Cloudy
1:20 PM 82.4 °F 33.8 °F 17% 29.95 in 6.2 mi Variable 4.6 mph - N/A   Partly Cloudy
1:50 PM 80.6 °F 23.0 °F 12% 29.95 in 6.2 mi South 10.4 mph - N/A   Scattered Clouds
2:20 PM 80.6 °F 26.6 °F 14% 29.95 in 6.2 mi SSW 11.5 mph - N/A   Scattered Clouds
2:50 PM 80.6 °F 28.4 °F 15% 29.98 in 6.2 mi South 10.4 mph - N/A   Scattered Clouds
3:00 PM 80 °F 27 °F 7%  in 12 mi South 10.4 mph - -   Partly Cloudy
3:20 PM 80.6 °F 37.4 °F 21% 29.95 in 6.2 mi South 9.2 mph - N/A   Scattered Clouds
3:50 PM 77.0 °F 35.6 °F 22% 29.95 in 6.2 mi South 10.4 mph - N/A   Scattered Clouds
4:20 PM 80.6 °F 37.4 °F 21% 29.95 in 6.2 mi SSE 8.1 mph - N/A   Scattered Clouds
4:50 PM 78.8 °F 35.6 °F 21% 29.95 in 6.2 mi South 6.9 mph - N/A   Scattered Clouds
5:20 PM 78.8 °F 35.6 °F 21% 29.95 in 6.2 mi SSW 6.9 mph - N/A   Partly Cloudy
5:50 PM 78.8 °F 37.4 °F 23% 29.95 in 6.2 mi SW 5.8 mph - N/A   Partly Cloudy
6:20 PM 77.0 °F 35.6 °F 22% 29.95 in 6.2 mi SW 5.8 mph - N/A   Partly Cloudy
6:50 PM 73.4 °F 37.4 °F 27% 29.95 in - SW 5.8 mph - N/A   Clear
7:20 PM 69.8 °F 37.4 °F 31% 29.98 in - SW 4.6 mph - N/A   Clear
7:50 PM 64.4 °F 37.4 °F 37% 29.98 in - SSW 4.6 mph - N/A   Clear
8:20 PM 64.4 °F 39.2 °F 40% 29.98 in - SSW 6.9 mph - N/A   Clear
8:50 PM 64.4 °F 39.2 °F 40% 29.98 in - SSW 5.8 mph - N/A   Clear
9:00 PM 63 °F 38 °F 28%  in 12 mi SSW 4.6 mph - -  
9:20 PM 62.6 °F 39.2 °F 42% 30.01 in - Variable 1.2 mph - N/A   Clear
9:50 PM 55.4 °F 44.6 °F 67% 30.01 in - Variable 2.3 mph - N/A   Clear
10:20 PM 53.6 °F 41.0 °F 62% 30.01 in - SSW 2.3 mph - N/A   Clear
10:50 PM 50.0 °F 41.0 °F 71% 30.01 in - Variable 2.3 mph - N/A   Clear
11:20 PM 53.6 °F 41.0 °F 62% 30.01 in - SE 3.5 mph - N/A   Clear
11:50 PM 50.0 °F 41.0 °F 71% 30.01 in - Variable 2.3 mph - N/A   Clear